| time (UTC) | temp C | wind direction | speed KPH | gust KPH | rain 1hr cm | rain 24hr cm | rain mn cm | humidity % | barometer mb |
| 20260510210043 | 19 | 0 | 0.0 | 0.0 | 0.00 | 0.00 | 0.00 | 68 | 1011.8 |
| 20260510204541 | 19 | 0 | 0.0 | 0.0 | 0.00 | 0.00 | 0.00 | 67 | 1011.4 |
| 20260510203045 | 20 | 0 | 0.0 | 0.0 | 0.00 | 0.00 | 0.00 | 66 | 1011.3 |
| 20260510201542 | 20 | 0 | 0.0 | 0.0 | 0.00 | 0.00 | 0.00 | 66 | 1011.0 |
| 20260510200047 | 20 | 0 | 0.0 | 0.0 | 0.00 | 0.00 | 0.00 | 65 | 1010.6 |
| 20260510194542 | 20 | 0 | 0.0 | 0.0 | 0.00 | 0.00 | 0.00 | 65 | 1010.4 |
| 20260510193039 | 20 | 0 | 0.0 | 0.0 | 0.00 | 0.00 | 0.00 | 62 | 1010.2 |
| 20260510191539 | 21 | 0 | 0.0 | 0.0 | 0.00 | 0.00 | 0.00 | 61 | 1010.2 |
| 20260510190057 | 21 | 0 | 0.0 | 0.0 | 0.00 | 0.00 | 0.00 | 60 | 1010.1 |
| 20260510184545 | 22 | 0 | 0.0 | 4.8 | 0.00 | 0.00 | 0.00 | 57 | 1010.1 |
| 20260510183044 | 22 | 0 | 0.0 | 11.3 | 0.00 | 0.00 | 0.00 | 56 | 1009.8 |
| 20260510181606 | 23 | 0 | 0.0 | 9.7 | 0.00 | 0.00 | 0.00 | 55 | 1009.7 |
| 20260510180052 | 23 | 0 | 0.0 | 17.7 | 0.00 | 0.00 | 0.00 | 54 | 1009.5 |
| 20260510174558 | 23 | 281 | 0.0 | 17.7 | 0.00 | 0.00 | 0.00 | 53 | 1009.7 |
| 20260510173056 | 23 | 259 | 4.8 | 25.7 | 0.00 | 0.00 | 0.00 | 53 | 1009.7 |
| 20260510171558 | 23 | 205 | 8.0 | 27.4 | 0.00 | 0.00 | 0.00 | 53 | 1009.5 |
| 20260510170052 | 24 | 217 | 8.0 | 29.0 | 0.00 | 0.00 | 0.00 | 51 | 1009.3 |
| 20260510164557 | 24 | 212 | 6.4 | 32.2 | 0.00 | 0.00 | 0.00 | 52 | 1009.3 |
| 20260510163048 | 24 | 232 | 12.9 | 29.0 | 0.00 | 0.00 | 0.00 | 51 | 1009.4 |
| 20260510161547 | 25 | 220 | 11.3 | 29.0 | 0.00 | 0.00 | 0.00 | 50 | 1009.5 |
| 20260510160047 | 25 | 217 | 8.0 | 33.8 | 0.00 | 0.00 | 0.00 | 49 | 1009.5 |
| 20260510154543 | 25 | 247 | 14.5 | 40.2 | 0.00 | 0.00 | 0.00 | 48 | 1009.7 |
| 20260510153044 | 25 | 244 | 11.3 | 32.2 | 0.00 | 0.00 | 0.00 | 48 | 1009.7 |
| 20260510151538 | 25 | 249 | 9.7 | 40.2 | 0.00 | 0.00 | 0.00 | 49 | 1009.8 |
| 20260510150051 | 25 | 214 | 14.5 | 37.0 | 0.00 | 0.00 | 0.00 | 49 | 1010.0 |
| 20260510144543 | 25 | 252 | 17.7 | 37.0 | 0.00 | 0.00 | 0.00 | 49 | 1009.9 |
| 20260510143044 | 25 | 210 | 16.1 | 35.4 | 0.00 | 0.00 | 0.00 | 50 | 1010.2 |
| 20260510141543 | 25 | 220 | 9.7 | 30.6 | 0.00 | 0.00 | 0.00 | 51 | 1010.2 |
| 20260510140042 | 26 | 217 | 8.0 | 30.6 | 0.00 | 0.00 | 0.00 | 50 | 1010.4 |
| 20260510134542 | 25 | 158 | 11.3 | 32.2 | 0.00 | 0.00 | 0.00 | 50 | 1010.7 |
| 20260510133039 | 25 | 256 | 6.4 | 33.8 | 0.00 | 0.00 | 0.00 | 50 | 1010.9 |
| 20260510131543 | 25 | 261 | 14.5 | 33.8 | 0.00 | 0.00 | 0.00 | 52 | 1010.8 |
| 20260510130038 | 25 | 233 | 12.9 | 30.6 | 0.00 | 0.00 | 0.00 | 52 | 1010.9 |
| 20260510124542 | 25 | 262 | 11.3 | 32.2 | 0.00 | 0.00 | 0.00 | 53 | 1011.1 |
| 20260510123042 | 25 | 218 | 8.0 | 29.0 | 0.00 | 0.00 | 0.00 | 54 | 1011.3 |
| 20260510121539 | 24 | 202 | 4.8 | 19.3 | 0.00 | 0.00 | 0.00 | 66 | 1011.5 |
| 20260510120038 | 24 | 124 | 1.6 | 17.7 | 0.00 | 0.00 | 0.00 | 65 | 1011.7 |
| 20260510114556 | 24 | 139 | 1.6 | 22.5 | 0.00 | 0.00 | 0.00 | 68 | 1011.9 |
| 20260510113046 | 23 | 199 | 0.0 | 19.3 | 0.00 | 0.00 | 0.00 | 67 | 1012.2 |
| 20260510111543 | 23 | 0 | 0.0 | 19.3 | 0.00 | 0.00 | 0.00 | 68 | 1012.5 |
| 20260510110050 | 24 | 0 | 0.0 | 16.1 | 0.00 | 0.00 | 0.00 | 66 | 1012.6 |
| 20260510104540 | 24 | 0 | 0.0 | 0.0 | 0.00 | 0.10 | 0.00 | 61 | 1012.9 |
| 20260510103043 | 23 | 0 | 0.0 | 1.6 | 0.00 | 0.10 | 0.00 | 63 | 1012.9 |
| 20260510101558 | 23 | 0 | 0.0 | 0.0 | 0.00 | 0.10 | 0.00 | 64 | 1013.0 |
| 20260510100050 | 22 | 0 | 0.0 | 0.0 | 0.00 | 0.10 | 0.00 | 67 | 1013.2 |
| 20260510094549 | 21 | 0 | 0.0 | 0.0 | 0.00 | 0.46 | 0.00 | 67 | 1013.3 |
| 20260510093041 | 21 | 0 | 0.0 | 0.0 | 0.00 | 0.46 | 0.00 | 70 | 1013.4 |
| 20260510091540 | 21 | 0 | 0.0 | 0.0 | 0.00 | 0.46 | 0.00 | 70 | 1013.5 |
| 20260510090039 | 21 | 0 | 0.0 | 0.0 | 0.00 | 0.46 | 0.00 | 72 | 1013.5 |
| 20260510084539 | 20 | 0 | 0.0 | 0.0 | 0.00 | 0.64 | 0.00 | 73 | 1013.6 |
| 20260510083043 | 19 | 0 | 0.0 | 0.0 | 0.00 | 0.64 | 0.00 | 76 | 1013.8 |
| 20260510081544 | 18 | 0 | 0.0 | 0.0 | 0.00 | 0.64 | 0.00 | 81 | 1013.8 |
| 20260510080056 | 17 | 0 | 0.0 | 0.0 | 0.00 | 0.64 | 0.00 | 84 | 1014.0 |
| 20260510074540 | 16 | 0 | 0.0 | 0.0 | 0.00 | 0.84 | 0.00 | 86 | 1014.0 |
| 20260510073047 | 16 | 0 | 0.0 | 0.0 | 0.00 | 0.84 | 0.00 | 88 | 1014.1 |
| 20260510071538 | 15 | 0 | 0.0 | 0.0 | 0.00 | 0.84 | 0.00 | 89 | 1014.0 |
| 20260510070050 | 15 | 0 | 0.0 | 1.6 | 0.00 | 0.84 | 0.00 | 90 | 1013.8 |
| 20260510064547 | 14 | 0 | 0.0 | 0.0 | 0.00 | 1.12 | 0.00 | 92 | 1013.8 |
| 20260510063043 | 13 | 0 | 0.0 | 0.0 | 0.00 | 1.12 | 0.00 | 93 | 1013.7 |
| 20260510061540 | 13 | 0 | 0.0 | 0.0 | 0.00 | 1.12 | 0.00 | 93 | 1013.9 |
| 20260510060044 | 13 | 0 | 0.0 | 0.0 | 0.00 | 1.12 | 0.00 | 93 | 1013.8 |
| 20260510054537 | 13 | 0 | 0.0 | 0.0 | 0.00 | 1.14 | 0.00 | 94 | 1013.7 |
| 20260510053046 | 12 | 0 | 0.0 | 0.0 | 0.00 | 1.14 | 0.00 | 94 | 1013.4 |
| 20260510051546 | 12 | 0 | 0.0 | 0.0 | 0.00 | 1.14 | 0.00 | 94 | 1013.4 |
| 20260510050045 | 12 | 0 | 0.0 | 0.0 | 0.00 | 1.14 | 0.00 | 93 | 1013.4 |
| 20260510044540 | 12 | 0 | 0.0 | 0.0 | 0.00 | 1.14 | 0.00 | 93 | 1013.4 |
| 20260510043039 | 12 | 0 | 0.0 | 0.0 | 0.00 | 1.14 | 0.00 | 94 | 1013.4 |
| 20260510041539 | 12 | 0 | 0.0 | 0.0 | 0.00 | 1.14 | 0.00 | 94 | 1013.2 |
| 20260510040047 | 12 | 0 | 0.0 | 0.0 | 0.00 | 1.14 | 0.00 | 94 | 1013.2 |
| 20260510034544 | 12 | 0 | 0.0 | 0.0 | 0.00 | 1.14 | 0.00 | 94 | 1013.2 |
| 20260510033053 | 12 | 0 | 0.0 | 0.0 | 0.00 | 1.14 | 0.00 | 94 | 1013.2 |
| 20260510031545 | 12 | 0 | 0.0 | 0.0 | 0.00 | 1.14 | 0.00 | 94 | 1013.2 |
| 20260510030041 | 12 | 0 | 0.0 | 0.0 | 0.00 | 1.14 | 0.00 | 94 | 1013.0 |
| 20260510024539 | 12 | 0 | 0.0 | 0.0 | 0.00 | 1.14 | 0.00 | 93 | 1013.0 |
| 20260510023044 | 12 | 0 | 0.0 | 0.0 | 0.00 | 1.14 | 0.00 | 94 | 1012.9 |
| 20260510021635 | 12 | 0 | 0.0 | 0.0 | 0.00 | 1.14 | 0.00 | 93 | 1013.0 |
| 20260510020046 | 13 | 0 | 0.0 | 0.0 | 0.00 | 1.14 | 0.00 | 93 | 1012.9 |
| 20260510014551 | 12 | 0 | 0.0 | 0.0 | 0.00 | 1.14 | 0.00 | 93 | 1012.8 |
| 20260510013041 | 13 | 0 | 0.0 | 0.0 | 0.00 | 1.14 | 0.00 | 92 | 1012.9 |
| 20260510011538 | 13 | 0 | 0.0 | 0.0 | 0.00 | 1.14 | 0.00 | 92 | 1012.8 |
| 20260510010049 | 13 | 0 | 0.0 | 0.0 | 0.00 | 1.14 | 0.00 | 92 | 1013.0 |
| 20260510004544 | 13 | 0 | 0.0 | 0.0 | 0.00 | 1.14 | 0.00 | 92 | 1013.2 |
| 20260510003043 | 13 | 0 | 0.0 | 0.0 | 0.00 | 1.14 | 0.00 | 91 | 1013.4 |
| 20260510001540 | 13 | 0 | 0.0 | 0.0 | 0.00 | 1.14 | 0.00 | 90 | 1013.3 |
| 20260510000041 | 13 | 0 | 0.0 | 0.0 | 0.00 | 1.14 | 0.00 | 89 | 1013.3 |
| 20260509234538 | 14 | 0 | 0.0 | 0.0 | 0.00 | 1.14 | 0.00 | 88 | 1013.3 |
| 20260509233043 | 14 | 0 | 0.0 | 0.0 | 0.00 | 1.14 | 0.00 | 89 | 1013.6 |
| 20260509231547 | 14 | 0 | 0.0 | 0.0 | 0.00 | 1.14 | 0.00 | 89 | 1013.4 |
| 20260509230048 | 14 | 0 | 0.0 | 0.0 | 0.00 | 1.14 | 0.00 | 90 | 1013.6 |
| 20260509224540 | 15 | 0 | 0.0 | 0.0 | 0.00 | 1.14 | 0.00 | 89 | 1013.6 |
| 20260509223048 | 15 | 0 | 0.0 | 0.0 | 0.00 | 1.14 | 0.00 | 88 | 1013.5 |
| 20260509221540 | 15 | 0 | 0.0 | 0.0 | 0.00 | 1.14 | 0.00 | 87 | 1013.6 |
| 20260509220039 | 15 | 0 | 0.0 | 0.0 | 0.00 | 1.14 | 0.00 | 87 | 1013.5 |
| 20260509214539 | 15 | 0 | 0.0 | 0.0 | 0.00 | 1.14 | 1.14 | 86 | 1013.4 |
| 20260509213105 | 15 | 0 | 0.0 | 0.0 | 0.00 | 1.14 | 1.14 | 85 | 1013.3 |
| 20260509211549 | 16 | 0 | 0.0 | 0.0 | 0.00 | 1.14 | 1.14 | 83 | 1013.3 |